Winchester, VA

6:39 PM EDT on April 29, 2017 (GMT -0400)
Winchester Regional

Weather History for KOKV - March, 2014

Change the Weather History Date:

Sunday, March 23, 2014

  Actual Average Record
Temperature  
Mean Temperature 37 °F -  
Max Temperature 44 °F 55 °F 80 °F (2012)
Min Temperature 30 °F 35 °F 19 °F (2004)
Degree Days  
Heating Degree Days 28    
Moisture  
Dew Point 23 °F    
Average Humidity 54    
Maximum Humidity 70    
Minimum Humidity 36    
Precipitation  
Precipitation 0.00 in - - ()
Sea Level Pressure  
Sea Level Pressure 30.08 in    
Wind  
Wind Speed 6 mph (NNW)    
Max Wind Speed 18 mph    
Max Gust Speed 26 mph    
Visibility 10 miles    
Events      
Averages and records for this station are not official NWS values.
T = Trace of Precipitation, MM = Missing Value Source: NWS Daily Summary

Daily Weather History Graph

Daily Weather History Graph

Search for Another Location

Airport or City:

Trip Planner

Search our weather history database for the weather conditions in past years. The results will help you decide how hot, cold, wet, or windy it might be!

Date:

Astronomy

Mar. 23, 2014 Rise Set
Actual Time 7:11 AM EDT 7:27 PM EDT
Civil Twilight 6:44 AM EDT 7:54 PM EDT
Nautical Twilight 6:13 AM EDT 8:25 PM EDT
Astronomical Twilight 5:41 AM EDT 8:57 PM EDT
Moon 1:40 AM EDT (3/23) 11:52 AM EDT (3/23)
Length of Visible Light 13h 09m
Length of Day
12h 16m
Waning Gibbous, 55% of the Moon is Illuminated
Mar 23
Waning Gibbous
Mar 23
Last Quarter
Mar 30
New
Apr 7
First Quarter
Apr 15
Full

Hourly Weather History & Observations

Time (EDT) Temp. Windchill Dew Point Humidity Pressure Visibility Wind Dir Wind Speed Gust Speed Precip Events Conditions
12:15 AM 44.6 °F 43.1 °F 30.2 °F 57% 30.04 in 10.0 mi ENE 3.5 mph - N/A   Clear
12:35 AM 42.8 °F 40.1 °F 30.2 °F 61% 30.04 in 10.0 mi North 4.6 mph - N/A   Clear
12:55 AM 42.8 °F 38.6 °F 30.2 °F 61% 30.03 in 10.0 mi North 6.9 mph - N/A   Clear
1:15 AM 42.8 °F 38.6 °F 30.2 °F 61% 30.04 in 10.0 mi NNE 6.9 mph - N/A   Clear
1:35 AM 42.8 °F - 30.2 °F 61% 30.05 in 10.0 mi Calm Calm - N/A   Clear
1:55 AM 41.0 °F - 28.4 °F 61% 30.05 in 10.0 mi Calm Calm - N/A   Clear
2:15 AM 41.0 °F - 28.4 °F 61% 30.05 in 10.0 mi Calm Calm - N/A   Clear
2:35 AM 41.0 °F 39.0 °F 28.4 °F 61% 30.06 in 10.0 mi NNW 3.5 mph - N/A   Clear
2:55 AM 41.0 °F 38.0 °F 28.4 °F 61% 30.05 in 10.0 mi North 4.6 mph - N/A   Clear
3:15 AM 41.0 °F - 28.4 °F 61% 30.05 in 10.0 mi Calm Calm - N/A   Clear
3:35 AM 39.2 °F 37.0 °F 28.4 °F 65% 30.06 in 10.0 mi NNW 3.5 mph - N/A   Clear
3:55 AM 39.2 °F 37.0 °F 28.4 °F 65% 30.07 in 10.0 mi North 3.5 mph - N/A   Clear
4:15 AM 37.4 °F 32.8 °F 28.4 °F 70% 30.06 in 10.0 mi North 5.8 mph - N/A   Clear
4:35 AM 37.4 °F - 26.6 °F 65% 30.06 in 10.0 mi Calm Calm - N/A   Scattered Clouds
4:55 AM 37.4 °F - 26.6 °F 65% 30.06 in 10.0 mi Calm Calm - N/A   Scattered Clouds
5:15 AM 35.6 °F 32.8 °F 26.6 °F 70% 30.07 in 10.0 mi North 3.5 mph - N/A   Scattered Clouds
5:35 AM 35.6 °F 32.8 °F 26.6 °F 70% 30.07 in 10.0 mi North 3.5 mph - N/A   Scattered Clouds
5:55 AM 35.6 °F - 26.6 °F 70% 30.06 in 10.0 mi Calm Calm - N/A   Mostly Cloudy
6:15 AM 37.4 °F - 26.6 °F 65% 30.07 in 10.0 mi Calm Calm - N/A   Overcast
6:35 AM 37.4 °F 34.9 °F 26.6 °F 65% 30.08 in 10.0 mi East 3.5 mph - N/A   Overcast
6:55 AM 37.4 °F - 26.6 °F 65% 30.08 in 10.0 mi Calm Calm - N/A   Overcast
7:15 AM 35.6 °F - 26.6 °F 70% 30.09 in 10.0 mi Calm Calm - N/A   Overcast
7:35 AM 37.4 °F 31.4 °F 26.6 °F 65% 30.10 in 10.0 mi NNW 8.1 mph - N/A   Scattered Clouds
7:55 AM 37.4 °F 30.3 °F 26.6 °F 65% 30.10 in 10.0 mi NNW 10.4 mph - N/A   Clear
8:15 AM 37.4 °F 30.3 °F 26.6 °F 65% 30.10 in 10.0 mi NNW 10.4 mph - N/A   Clear
8:35 AM 37.4 °F 32.1 °F 26.6 °F 65% 30.10 in 10.0 mi NNW 6.9 mph - N/A   Scattered Clouds
8:55 AM 37.4 °F - 26.6 °F 65% 30.10 in 10.0 mi Calm Calm - N/A   Mostly Cloudy
9:15 AM 37.4 °F - 24.8 °F 60% 30.10 in 10.0 mi Calm Calm - N/A   Mostly Cloudy
9:35 AM 39.2 °F 35.0 °F 26.6 °F 61% 30.10 in 10.0 mi NNW 5.8 mph - N/A   Overcast
9:55 AM 39.2 °F 33.6 °F 24.8 °F 56% 30.09 in 10.0 mi NNW 8.1 mph - N/A   Overcast
10:15 AM 39.2 °F 33.0 °F 24.8 °F 56% 30.08 in 10.0 mi NNW 9.2 mph - N/A   Overcast
10:35 AM 39.2 °F 33.6 °F 23.0 °F 52% 30.08 in 10.0 mi North 8.1 mph - N/A   Overcast
10:55 AM 39.2 °F 34.2 °F 24.8 °F 56% 30.08 in 10.0 mi NW 6.9 mph - N/A   Overcast
11:15 AM 41.0 °F 34.7 °F 24.8 °F 53% 30.08 in 10.0 mi NNW 10.4 mph 16.1 mph N/A   Overcast
11:35 AM 41.0 °F 35.2 °F 26.6 °F 57% 30.09 in 10.0 mi NW 9.2 mph 19.6 mph N/A   Overcast
11:55 AM 41.0 °F 34.7 °F 24.8 °F 53% 30.09 in 10.0 mi NNW 10.4 mph - N/A   Overcast
12:15 PM 41.0 °F 35.2 °F 23.0 °F 49% 30.09 in 10.0 mi NNW 9.2 mph - N/A   Overcast
12:35 PM 41.0 °F 33.9 °F 24.8 °F 53% 30.09 in 10.0 mi NW 12.7 mph - N/A   Overcast
12:55 PM 41.0 °F 35.8 °F 23.0 °F 49% 30.09 in 10.0 mi NNW 8.1 mph - N/A   Overcast
1:15 PM 42.8 °F 38.0 °F 24.8 °F 49% 30.08 in 10.0 mi NNW 8.1 mph 11.5 mph N/A   Overcast
1:35 PM 41.0 °F 35.2 °F 24.8 °F 53% 30.07 in 10.0 mi WNW 9.2 mph - N/A   Overcast
1:55 PM 41.0 °F 37.1 °F 24.8 °F 53% 30.07 in 10.0 mi WNW 5.8 mph - N/A   Overcast
2:15 PM 41.0 °F 37.1 °F 24.8 °F 53% 30.05 in 10.0 mi NNW 5.8 mph - N/A   Overcast
2:35 PM 41.0 °F 35.8 °F 26.6 °F 57% 30.05 in 10.0 mi NW 8.1 mph - N/A   Overcast
2:55 PM 41.0 °F 34.7 °F 26.6 °F 57% 30.05 in 10.0 mi NNW 10.4 mph - N/A   Overcast
3:15 PM 41.0 °F 35.2 °F 26.6 °F 57% 30.05 in 10.0 mi NNW 9.2 mph 17.3 mph N/A   Overcast
3:35 PM 41.0 °F 34.3 °F 24.8 °F 53% 30.04 in 10.0 mi WNW 11.5 mph - N/A   Overcast
3:55 PM 41.0 °F 33.1 °F 23.0 °F 49% 30.04 in 10.0 mi NW 15.0 mph 24.2 mph N/A   Overcast
4:15 PM 41.0 °F 34.7 °F 23.0 °F 49% 30.03 in 10.0 mi NNW 10.4 mph 17.3 mph N/A   Overcast
4:35 PM 41.0 °F 32.8 °F 23.0 °F 49% 30.02 in 10.0 mi NW 16.1 mph 20.7 mph N/A   Mostly Cloudy
4:55 PM 41.0 °F 32.5 °F 21.2 °F 45% 30.02 in 10.0 mi NW 17.3 mph 20.7 mph N/A   Scattered Clouds
5:15 PM 42.8 °F 34.5 °F 19.4 °F 39% 30.02 in 10.0 mi NW 18.4 mph 26.5 mph N/A   Clear
5:35 PM 42.8 °F 35.1 °F 19.4 °F 39% 30.02 in 10.0 mi WNW 16.1 mph - N/A   Mostly Cloudy
5:55 PM 42.8 °F 34.8 °F 19.4 °F 39% 30.03 in 10.0 mi WNW 17.3 mph 23.0 mph N/A   Overcast
6:15 PM 41.0 °F 32.8 °F 17.6 °F 39% 30.04 in 10.0 mi NW 16.1 mph 21.9 mph N/A   Overcast
6:35 PM 41.0 °F 33.5 °F 15.8 °F 36% 30.05 in 10.0 mi NW 13.8 mph 24.2 mph N/A   Mostly Cloudy
6:55 PM 39.2 °F 31.2 °F 15.8 °F 39% 30.05 in 10.0 mi WNW 13.8 mph 18.4 mph N/A   Scattered Clouds
7:15 PM 37.4 °F 29.3 °F 14.0 °F 38% 30.06 in 10.0 mi WNW 12.7 mph 26.5 mph N/A   Clear
7:35 PM 35.6 °F 25.9 °F 14.0 °F 41% 30.07 in 10.0 mi NW 16.1 mph 19.6 mph N/A   Clear
7:55 PM 35.6 °F 26.2 °F 14.0 °F 41% 30.08 in 10.0 mi NW 15.0 mph 20.7 mph N/A   Clear
8:15 PM 35.6 °F 27.1 °F 14.0 °F 41% 30.09 in 10.0 mi NW 12.7 mph 16.1 mph N/A   Clear
8:35 PM 33.8 °F 23.9 °F 14.0 °F 44% 30.11 in 10.0 mi NW 15.0 mph 25.3 mph N/A   Clear
8:55 PM 33.8 °F 23.9 °F 12.2 °F 41% 30.12 in 10.0 mi NW 15.0 mph 26.5 mph N/A   Clear
9:15 PM 32.0 °F 22.1 °F 12.2 °F 44% 30.14 in 10.0 mi NW 13.8 mph - N/A   Clear
9:35 PM 32.0 °F 28.7 °F 12.2 °F 44% 30.15 in 10.0 mi North 3.5 mph - N/A   Clear
9:55 PM 32.0 °F 25.6 °F 12.2 °F 44% 30.16 in 10.0 mi NNW 6.9 mph - N/A   Clear
10:15 PM 32.0 °F 23.6 °F 10.4 °F 41% 30.16 in 10.0 mi NW 10.4 mph 16.1 mph N/A   Clear
10:35 PM 32.0 °F 28.7 °F 10.4 °F 41% 30.18 in 10.0 mi NNW 3.5 mph - N/A   Clear
10:55 PM 32.0 °F 24.2 °F 10.4 °F 41% 30.18 in 10.0 mi NNW 9.2 mph - N/A   Clear
11:15 PM 30.2 °F 22.6 °F 10.4 °F 44% 30.19 in 10.0 mi NNW 8.1 mph - N/A   Clear
11:35 PM 30.2 °F 20.2 °F 10.4 °F 44% 30.20 in 10.0 mi NW 12.7 mph 18.4 mph N/A   Clear
11:55 PM 30.2 °F 20.8 °F 10.4 °F 44% 30.20 in 10.0 mi NW 11.5 mph 20.7 mph N/A   Clear